Powrót do katalogu

COSMOS 1492

GLONASS

AktywnyNawigacjaMEO
NORAD 14260·PAYLOAD·🇷🇺 Russia

Wystrzelony Aug 10, 1983 z Baikonur Cosmodrome

Loading…

Następne Przeloty (najbliższe 24 godziny)

TLE

ŚwieżeSource: Space-Track

Epoka: Sep 10, 2026, 03:24 UTC

1 14260U 83084C   26253.14173145  .00000023  00000-0  00000-0 0  9995
2 14260  64.8642  71.6494 0001562  30.8055 157.6103  2.12758812333380

Śledź COSMOS 1492 w czasie rzeczywistym z AllMySat

Download on the App Store